Flag for Germany Weather past 2 weeks in Magdeburg, Saxony-Anhalt, Germany

Now
69 °F

Scattered clouds.


Feels Like: 69 °F
Forecast: 50 / 64 °F
Wind: 2 mph from South

Location: Magdeburg

Current Time: May 24, 2015 at 5:16:15 PM

Latest Report: May 24, 2015 at 4:00 PM


Visibility: 31 mi

Pressure: 30.08 "Hg

Humidity: 36%

Dew point: 41 °F

Location of MagdeburgLocation

Historic Weather in Magdeburg — Graph

°F

Magdeburg temperature yesterday

Maximum temperature yesterday: 67 °F (at 2:00 PM)
Minimum temperature yesterday: 55 °F (at 5:00 AM)
Average temperature yesterday: 60 °F

Past Weeks' High & Low Weather Summary

 TemperatureHumidityPressure
High80 °F (May 12, 4:00 PM)97% (May 15, 5:00 AM)30.38 "Hg (May 15, 5:00 AM)
Low38 °F (May 15, 5:00 AM)27% (May 22, 3:00 PM)29.61 "Hg (May 19, 2:00 AM)
Average56 °F63%30.07 "Hg
* Reported May 9 4:00 PM — May 24 4:00 PM, Magdeburg, Weather by CustomWeather, © 2015

Note: Actual official high and low records may vary slightly from our data, if they occured in-between our weather recording intervals... More about our weather records

Advertising

Magdeburg weather history for previous 24 hours

 ConditionsComfort  
Time TempWeatherWind HumidityBarometerVisibility
4:00 PM
Sun, May 24
69 °FScattered clouds.2 mph36%30.08 "Hg31 mi
3:00 PM67 °FPassing clouds.2 mph37%30.09 "Hg31 mi
2:00 PM65 °FPassing clouds.2 mph39%30.11 "Hg31 mi
1:00 PM64 °FScattered clouds.1 mph41%30.12 "Hg31 mi
12:00 PM62 °FScattered clouds.1 mph48%30.14 "Hg31 mi
10:00 AM57 °FScattered clouds.2 mph55%30.16 "Hg28 mi
9:00 AM55 °FPassing clouds.1 mph60%30.16 "Hg25 mi
8:00 AM53 °FScattered clouds.1 mph64%30.16 "Hg25 mi
7:00 AM47 °FScattered clouds.1 mph80%30.16 "Hg22 mi
6:00 AM42 °FPassing clouds.1 mph91%30.16 "Hg19 mi
5:00 AM42 °FClear.1 mph92%30.15 "Hg14 mi
4:00 AM43 °FClear.1 mph92%30.15 "Hg14 mi
3:00 AM46 °FClear.2 mph88%30.15 "Hg14 mi
2:00 AM47 °FClear.1 mph87%30.15 "Hg17 mi
1:00 AM50 °FClear.1 mph88%30.15 "Hg19 mi
12:00 AM53 °FPassing clouds.2 mph75%30.15 "Hg25 mi
10:00 PM
Sat, May 23
58 °FOvercast.2 mph76%30.13 "Hg28 mi
9:00 PM58 °FOvercast.2 mph75%30.11 "Hg31 mi
8:00 PM60 °FOvercast.3 mph70%30.10 "Hg37 mi
7:00 PM60 °FPartly sunny.3 mph72%30.10 "Hg15 mi
6:00 PM62 °FOvercast.5 mph67%30.09 "Hg9 mi
Weather by CustomWeather, © 2015

See weather overviewHow to use our weather pages